Погода в Тобольске

Погода в Тобольске : погода сейчас, прогноз погоды и архив. Всё, что Вы хотите узнать о погоде в Тобольске!

Хотите узнать прогноз погоды в Тобольске? Тогда Вам сюда: Погода в Тобольске

Поиск расширенной информации на нашем сайте:

Другие новости

Новости СМИ2

Главная страница сайта

Новости сайта

03.07.2017

Напоминаем, что на нашем специализированном сайте Метеоцентр.Азия вы можете получить высокодетализированные автоматические прогнозы погоды по пунктам России, СНГ и мира в авиационном формате (включающие направление и скорость ветра, видимость, явления погоды, количество и форму облачности, нижнюю и верхнюю границу облачности).


Погода в Тобольске - сегодня

Время (UTC), дата Ветер
(°,м/с) 
Видим.   Явления Облачность Т
(°С)
Тd
(°С)
f(%) Тe
(°С)
Pmin
(гПа)
dP
(гПа)
Po
(мм)
O2
(г/м3)
Тmin Tmax R s Состояние
почвы
09 15.06.18 300 (СЗ) 20000 м    10/6 600 м кучево-дожд., средняя 
[Cb cap|Ac trans]
+17.2 +3.9 41 +18  1004.1  0.4  749  283           
12 15.06.18 270 (З) 20000 м    10/6 600 м кучево-дожд., средняя 
[Cb cap|Ac trans]
+16.3 +2.5 39 +17  1005.2  1.1  750  285           
18 15.06.18 270 (З) 10 км    1/1 600 м 
[Sc]
+8 +4.8 80 +9  1006.6  0.3  750  293           
21 15.06.18 260 (З) 10 км    1/1 600 м 
[Sc]
+7.6 +4.7 82 +9  1006.7  0.1  751  293           
00 16.06.18 250 (З) 20000 м    ясно 
+7.5 +4.6 82 +7  1006.6  -0.1  750  294           
03 16.06.18 240 (ЮЗ) 20000 м    3/1 600 м верхняя 
[Cu hum|Ci sp]
+10.4 +4 64 +10  1007.1  0.6  751  291  +6.4         
06 16.06.18 230 (ЮЗ) 20000 м    10/10 600 м 
[Sc]
+12.4 +3.3 54 +12  1007.3  0.3  751  289           
09 16.06.18 240 (ЮЗ) 20000 м    8/8 600 м 
[Sc]
+15.3 +3 44 +16  1007.1  -0.2  751  286           
15 16.06.18 140 (ЮВ) 1{12}  20000 м  {ливн. осадки}  10/1 600 м кучево-дожд., верхняя 
[Cb cap|Ci sp]
+13.4 +6.1 61 +15  1007.4  -0.1  751  288    +16.4  0.0     
18 16.06.18 070 (В) 10 км  {ливн. осадки}  8/8 600 м кучево-дожд. 
[Cb cap]
+9 +7.1 88 +10  1007.2  -0.3  751  292           
21 16.06.18 330 (СЗ) 10 км    8/8 600 м кучево-дожд. 
[Cb cap]
+8.2 +7.1 93 +9  1006.9  -0.4  751  292           
00 17.06.18 020 (С) 20000 м    4/4 600 м 
[Sc]
+9.9 +6.1 77 +10  1006.4  -0.4  750  291           
03 17.06.18 040 (СВ) 20000 м    3/3 600 м 
[Sc]
+14.8 +5.9 55 +15  1005.6  -0.7  750  286  +7         
06 17.06.18 100 (В) 20000 м    8/8 600 м кучево-дожд. 
[Cb cap]
+17.4 +2.5 37 +18  1004.5  -1  749  283           
09 17.06.18 360 (С) 20000 м    10/4 600 м кучево-дожд., средняя 
[Cb cap|Ac trans]
+17.5 +4.5 42 +18  1003.8  -0.8  749  283           
12 17.06.18 040 (СВ) 20000 м    8/4 600 м кучево-дожд., верхняя 
[Cb cap|Ci fib]
+19.1 +1.6 31 +20  1002.7  -1  748  281           
18 17.06.18 340 (С) 10 км    10/10 600 м 
[Sc]
+12 +7 71 +13  1001.5  -0.9  747  287           
21 17.06.18 320 (СЗ) 10 км    10/10 600 м 
[Sc]
+11.6 +7.7 77 +12  999.5  -2  745  287           
00 18.06.18 010 (С) 20000 м    10/10 600 м кучево-дожд. 
[Cb cap]
+11 +7.7 80 +12  998.5  -1  745  287           
03 18.06.18 060 (СВ) 20000 м    10/10 600 м кучево-дожд. 
[Cb cap]
+12.4 +7.6 72 +14  997.8  -0.7  744  285  +10.6         
09 18.06.18 130 (ЮВ) 20000 м  {ливн. осадки}  10/6 600 м кучево-дожд., средняя 
[Cb cap|Ac und]
+13.5 +7.8 68 +15  998.5  0.7  745  285           
12 18.06.18 120 (ЮВ) 20000 м  {ливн. осадки}  10/3 600 м кучево-дожд., средняя 
[Cb cap|Ac trans]
+14.2 +9.6 74 +16  998.9  0.4  745  284           
18 18.06.18 тихо ()   10 км  {ливн. осадки}  10/10 600 м кучево-дожд. 
[Cb cap]
+9.9 +8.8 93 +10  998.2  -0.7  744  288           
21 18.06.18 тихо ()   10 км    10/4 600 м кучево-дожд., средняя 
[Cb cap|Ac und]
+9.5 +8.6 94 +10  997.2  -1  743  288           
00 19.06.18 340 (С) 20000 м    10/3 600 м кучево-дожд., средняя 
[Cb cap|Ac und]
+9.8 +8.8 93 +10  997.1  -0.1  743  288           
Время (UTC), дата Ветер
(°,м/с) 
Видим.   Явления Облачность Т
(°С)
Тd
(°С)
f(%) Тe
(°С)
Pmin
(гПа)
dP
(гПа)
Po
(мм)
O2
(г/м3)
Тmin Tmax R s Состояние
почвы

Для получения пояснительной информации подведите курсор к названию столбца.

ПОГОДА в Тобольске - архив

Всё, что Вы хотите узнать о погоде в Тобольске - удобно и подробно!

Выберите нужную дату (начиная с 1 января 2015* года) и нажмите кнопку "Найти".
Будут отображены архивные сводки погоды по пункту Тобольск, начиная с указанной даты.


Отображать данные в формате CSV (для использования в таблицах Excel)


Внимание! Наш архив погоды предназначен исключительно для личного некоммерческого использования в познавательных целях. Если Вам необходимы официальные справки о состоянии погоды (для производственных, юридических, коммерческих и т.п. целей), обращайтесь в органы Росгидромета.

*Примечание: данная дата относится к архиву по метеостанциям СССР (Россия, СНГ, Балтия).
Архив по метеостанциям Зарубежной Европы и Азии (кроме Китая) хранится 10 дней, по другим регионам земного шара (Китай, Африка, Америка, Австралия, Океания) - 1 день.

Тобольск - район местоположения метеостанции


Название, широта, долгота, высота метеостанции:
Тобольск 58.2°ш. 68.2°д. 50 м над ур. моря [Российская Федерация]

Дополнительная информация

В oтличие oт бoльшинства пoгoдных сайтoв мы публикуем пoдрoбную метеoинфoрмацию в детальнoм прoфессиoнальнoм фoрмате.

Характеристики температуры и влажнoсти вoздуха измеряются на высoте 2 м в тени вдали oт зданий и деревьев.
Скoрoсть ветра измеряется на высoте 10 м (на урoвне рoста челoвека скoрoсть ветра ниже в 1.5-2 раза). Если метеoстанция нахoдится в гoрoде или в лесу, тo скoрoсть ветра занижена на 2-4 м/с пo сравнению с oткрытым местoм. Скoрoсть ветра над акватoриями крупных рек и oзёр, а также на вершинах хoлмoв на 2-5 м/с выше, чем в oбычных услoвиях.
Атмoсфернoе давление в разных тoчках местнoсти мoжет значительнo oтличаться oт давления на метеoстанции, в зависимoсти oт услoвий рельефа (при пoдъёме на 10 м давление пoнижается примернo на 1 мм рт.ст.).